Location: Newark
(9.3150°S, 75.0000°W)
Time: 03:50:00
(UTC+00:00)

Envisat - Visible Passes

Search period start: 19 September 2020 00:00
Search period end: 29 September 2020 00:00
Orbit: 764 x 766 km, 98.1° (Epoch: 18 September)

Date Brightness Start Highest point End Pass type
(mag) Time Alt. Az. Time Alt. Az. Time Alt. Az.
19 Sep 4.6 23:14:53 10° S 23:19:39 41° WSW 23:24:24 10° NW visible
20 Sep 4.3 10:12:04 10° NNE 10:16:52 44° ESE 10:21:42 10° S visible
21 Sep 6.0 09:37:13 10° ENE 09:40:16 16° ESE 09:43:19 10° SE visible
21 Sep 5.9 23:41:17 10° SSW 23:44:57 20° WSW 23:48:38 10° WNW visible
23 Sep 5.0 10:01:04 10° NE 10:05:33 33° ESE 10:10:04 10° SSE visible
24 Sep 6.3 09:27:19 10° E 09:28:59 12° ESE 09:30:39 10° SE visible
24 Sep 5.4 23:29:24 10° SSW 23:33:40 27° WSW 23:37:54 10° NW visible
25 Sep 3.5 10:25:52 10° NNE 10:30:53 68° ESE 10:35:58 10° S visible
26 Sep 5.5 09:50:13 10° NE 09:54:15 24° ESE 09:58:19 10° SSE visible
26 Sep 6.2 23:56:36 10° SW 23:58:56 13° WSW 00:01:16 10° WNW visible
27 Sep 4.8 23:17:42 10° S 23:22:21 37° WSW 23:26:59 10° NW visible
28 Sep 4.1 10:14:41 10° NNE 10:19:34 50° ESE 10:24:29 10° S visible
